| time (UTC) | temp F | wind direction | speed knots | gust knots | rain 1hr in | rain 24hr in | rain mn in | humidity % | barometer mb |
| 20260905094003 | 68 | 105 | 0.0 | 1.7 | 0.00 | 0.13 | 0.00 | 98 | 1014.9 |
| 20260905093507 | 68 | 105 | 0.0 | 2.6 | 0.00 | 0.13 | 0.00 | 98 | 1014.7 |
| 20260905093014 | 68 | 105 | 0.9 | 2.6 | 0.00 | 0.13 | 0.00 | 98 | 1014.5 |
| 20260905092509 | 68 | 211 | 0.0 | 2.6 | 0.00 | 0.13 | 0.00 | 98 | 1014.2 |
| 20260905092003 | 68 | 211 | 0.9 | 2.6 | 0.00 | 0.13 | 0.00 | 98 | 1014.1 |
| 20260905091514 | 68 | 211 | 0.0 | 1.7 | 0.00 | 0.13 | 0.00 | 98 | 1014.0 |
| 20260905091007 | 68 | 211 | 0.0 | 2.6 | 0.00 | 0.13 | 0.00 | 98 | 1014.0 |
| 20260905090506 | 68 | 211 | 0.0 | 4.3 | 0.00 | 0.13 | 0.00 | 98 | 1013.9 |
| 20260905090010 | 68 | 215 | 0.9 | 5.2 | 0.00 | 0.13 | 0.00 | 98 | 1013.8 |
| 20260905085509 | 68 | 227 | 2.6 | 5.2 | 0.00 | 0.13 | 0.00 | 98 | 1013.8 |
| 20260905085008 | 68 | 207 | 0.0 | 0.0 | 0.00 | 0.13 | 0.00 | 98 | 1014.1 |
| 20260905084504 | 68 | 207 | 0.0 | 0.0 | 0.00 | 0.13 | 0.00 | 98 | 1014.0 |
| 20260905084003 | 68 | 207 | 0.0 | 0.0 | 0.00 | 0.13 | 0.00 | 98 | 1014.0 |
| 20260905083504 | 68 | 207 | 0.0 | 0.0 | 0.00 | 0.13 | 0.00 | 98 | 1013.8 |
| 20260905083012 | 68 | 207 | 0.0 | 0.0 | 0.00 | 0.13 | 0.00 | 98 | 1013.7 |
| 20260905082502 | 68 | 207 | 0.0 | 0.0 | 0.00 | 0.13 | 0.00 | 98 | 1013.6 |
| 20260905082003 | 68 | 207 | 0.0 | 0.0 | 0.00 | 0.13 | 0.00 | 98 | 1013.4 |
| 20260905081516 | 68 | 207 | 0.0 | 0.0 | 0.00 | 0.13 | 0.00 | 98 | 1013.7 |
| 20260905081009 | 68 | 207 | 0.0 | 0.0 | 0.00 | 0.13 | 0.00 | 98 | 1013.8 |
| 20260905080503 | 68 | 207 | 0.0 | 0.0 | 0.00 | 0.13 | 0.00 | 98 | 1013.9 |
| 20260905080020 | 68 | 207 | 0.0 | 0.0 | 0.00 | 0.13 | 0.00 | 98 | 1014.0 |
| 20260905075508 | 68 | 207 | 0.0 | 0.0 | 0.00 | 0.13 | 0.00 | 97 | 1014.0 |
| 20260905075003 | 68 | 207 | 0.0 | 1.7 | 0.00 | 0.13 | 0.00 | 97 | 1014.1 |
| 20260905074517 | 68 | 207 | 0.0 | 1.7 | 0.00 | 0.13 | 0.00 | 97 | 1014.2 |
| 20260905074007 | 68 | 207 | 0.9 | 1.7 | 0.00 | 0.13 | 0.00 | 98 | 1014.0 |
| 20260905073513 | 68 | 207 | 0.0 | 1.7 | 0.00 | 0.13 | 0.00 | 97 | 1014.0 |
| 20260905073012 | 68 | 207 | 0.0 | 1.7 | 0.00 | 0.13 | 0.00 | 97 | 1014.0 |
| 20260905072504 | 68 | 207 | 0.9 | 1.7 | 0.00 | 0.13 | 0.00 | 97 | 1014.1 |
| 20260905072005 | 68 | 207 | 0.0 | 0.9 | 0.00 | 0.13 | 0.00 | 97 | 1014.3 |
| 20260905071514 | 69 | 207 | 0.0 | 0.9 | 0.00 | 0.13 | 0.00 | 97 | 1014.2 |
| 20260905071007 | 69 | 207 | 0.0 | 1.7 | 0.00 | 0.13 | 0.00 | 97 | 1014.2 |
| 20260905070504 | 69 | 207 | 0.0 | 2.6 | 0.00 | 0.13 | 0.00 | 98 | 1014.3 |
| 20260905070028 | 69 | 207 | 0.0 | 2.6 | 0.00 | 0.13 | 0.00 | 98 | 1014.3 |
| 20260905065503 | 69 | 198 | 0.9 | 1.7 | 0.00 | 0.13 | 0.00 | 97 | 1014.3 |
| 20260905065005 | 69 | 159 | 0.0 | 1.7 | 0.00 | 0.13 | 0.00 | 97 | 1014.4 |
| 20260905064525 | 69 | 101 | 0.0 | 3.5 | 0.00 | 0.13 | 0.00 | 97 | 1014.5 |
| 20260905064009 | 69 | 101 | 0.0 | 3.5 | 0.00 | 0.13 | 0.00 | 97 | 1014.7 |
| 20260905063507 | 69 | 119 | 1.7 | 2.6 | 0.00 | 0.13 | 0.00 | 98 | 1014.9 |
| 20260905063023 | 69 | 312 | 0.9 | 2.6 | 0.00 | 0.13 | 0.00 | 97 | 1014.6 |
| 20260905062511 | 69 | 312 | 0.0 | 2.6 | 0.00 | 0.13 | 0.00 | 98 | 1014.2 |
| 20260905062011 | 69 | 29 | 0.0 | 1.7 | 0.00 | 0.13 | 0.00 | 97 | 1014.4 |
| 20260905061518 | 69 | 29 | 0.0 | 0.9 | 0.00 | 0.13 | 0.00 | 97 | 1014.7 |
| 20260905061013 | 69 | 29 | 0.0 | 0.9 | 0.00 | 0.13 | 0.00 | 97 | 1014.8 |
| 20260905060507 | 69 | 29 | 0.0 | 0.0 | 0.00 | 0.13 | 0.00 | 97 | 1014.8 |
| 20260905060014 | 69 | 29 | 0.0 | 0.0 | 0.00 | 0.13 | 0.00 | 97 | 1014.9 |
| 20260905055507 | 69 | 29 | 0.0 | 0.0 | 0.00 | 0.13 | 0.00 | 98 | 1015.0 |
| 20260905055011 | 69 | 29 | 0.0 | 0.9 | 0.00 | 0.13 | 0.00 | 97 | 1015.2 |
| 20260905054524 | 69 | 29 | 0.0 | 0.9 | 0.00 | 0.13 | 0.00 | 98 | 1015.2 |
| 20260905054006 | 69 | 29 | 0.0 | 1.7 | 0.00 | 0.13 | 0.00 | 97 | 1015.3 |
| 20260905053512 | 69 | 29 | 0.0 | 1.7 | 0.00 | 0.13 | 0.00 | 97 | 1015.3 |
| 20260905053030 | 69 | 29 | 0.0 | 0.9 | 0.00 | 0.13 | 0.00 | 97 | 1015.2 |
| 20260905052515 | 69 | 29 | 0.0 | 0.9 | 0.00 | 0.13 | 0.00 | 98 | 1015.2 |
| 20260905052011 | 69 | 29 | 0.0 | 0.9 | 0.00 | 0.13 | 0.00 | 97 | 1015.3 |
| 20260905051530 | 69 | 29 | 0.0 | 1.7 | 0.00 | 0.13 | 0.00 | 98 | 1015.5 |
| 20260905051014 | 69 | 29 | 0.0 | 1.7 | 0.00 | 0.13 | 0.00 | 98 | 1015.5 |
| 20260905050507 | 69 | 29 | 0.0 | 0.0 | 0.00 | 0.13 | 0.00 | 97 | 1015.5 |
| 20260905050025 | 69 | 29 | 0.0 | 0.0 | 0.00 | 0.13 | 0.00 | 97 | 1015.7 |
| 20260905045514 | 69 | 29 | 0.0 | 0.0 | 0.00 | 0.13 | 0.00 | 97 | 1015.6 |
| 20260905045015 | 69 | 29 | 0.0 | 0.0 | 0.00 | 0.13 | 0.00 | 97 | 1015.7 |
| 20260905044520 | 69 | 29 | 0.0 | 0.0 | 0.00 | 0.13 | 0.00 | 97 | 1015.4 |
| 20260905044008 | 69 | 29 | 0.0 | 0.0 | 0.00 | 0.13 | 0.00 | 97 | 1015.5 |
| 20260905043511 | 69 | 29 | 0.0 | 0.0 | 0.00 | 0.13 | 0.00 | 97 | 1015.5 |
| 20260905043028 | 69 | 29 | 0.0 | 0.0 | 0.00 | 0.13 | 0.00 | 97 | 1015.4 |
| 20260905042511 | 69 | 29 | 0.0 | 0.0 | 0.00 | 0.13 | 0.00 | 97 | 1015.4 |
| 20260905042016 | 69 | 29 | 0.0 | 0.0 | 0.00 | 0.13 | 0.00 | 97 | 1015.4 |
| 20260905041534 | 69 | 29 | 0.0 | 0.0 | 0.00 | 0.13 | 0.00 | 97 | 1015.5 |
| 20260905041009 | 69 | 29 | 0.0 | 0.9 | 0.00 | 0.13 | 0.00 | 96 | 1015.5 |
| 20260905040514 | 69 | 29 | 0.0 | 1.7 | 0.00 | 0.13 | 0.00 | 96 | 1015.5 |
| 20260905040033 | 69 | 29 | 0.0 | 1.7 | 0.00 | 0.13 | 0.00 | 96 | 1015.6 |
| 20260905035513 | 69 | 29 | 0.0 | 0.0 | 0.00 | 0.13 | 0.13 | 96 | 1015.5 |
| 20260905035008 | 69 | 29 | 0.0 | 0.0 | 0.00 | 0.13 | 0.13 | 96 | 1015.5 |
| 20260905034533 | 69 | 29 | 0.0 | 0.0 | 0.00 | 0.13 | 0.13 | 96 | 1015.5 |
| 20260905034016 | 69 | 29 | 0.0 | 0.0 | 0.00 | 0.13 | 0.13 | 96 | 1015.4 |
| 20260905033513 | 69 | 29 | 0.0 | 0.0 | 0.00 | 0.13 | 0.13 | 96 | 1015.4 |
| 20260905033022 | 69 | 29 | 0.0 | 0.0 | 0.00 | 0.13 | 0.13 | 96 | 1015.4 |
| 20260905032513 | 69 | 29 | 0.0 | 0.0 | 0.00 | 0.13 | 0.13 | 96 | 1015.5 |
| 20260905032014 | 69 | 29 | 0.0 | 0.0 | 0.00 | 0.13 | 0.13 | 95 | 1015.4 |
| 20260905031531 | 69 | 29 | 0.0 | 0.0 | 0.00 | 0.13 | 0.13 | 95 | 1015.4 |
| 20260905031013 | 70 | 29 | 0.0 | 0.0 | 0.00 | 0.13 | 0.13 | 95 | 1015.4 |
| 20260905030515 | 70 | 29 | 0.0 | 0.0 | 0.00 | 0.13 | 0.13 | 95 | 1015.4 |
| 20260905030035 | 70 | 29 | 0.0 | 0.0 | 0.00 | 0.13 | 0.13 | 95 | 1015.4 |
| 20260905025509 | 70 | 29 | 0.0 | 0.0 | 0.00 | 0.13 | 0.13 | 95 | 1015.5 |
| 20260905025016 | 70 | 29 | 0.0 | 0.0 | 0.00 | 0.13 | 0.13 | 95 | 1015.5 |
| 20260905024534 | 70 | 29 | 0.0 | 0.0 | 0.00 | 0.13 | 0.13 | 95 | 1015.6 |
| 20260905024016 | 70 | 29 | 0.0 | 0.0 | 0.00 | 0.13 | 0.13 | 95 | 1015.6 |
| 20260905023516 | 70 | 29 | 0.0 | 0.0 | 0.00 | 0.13 | 0.13 | 95 | 1015.6 |
| 20260905023034 | 70 | 29 | 0.0 | 0.0 | 0.00 | 0.14 | 0.13 | 95 | 1015.7 |
| 20260905022514 | 70 | 29 | 0.0 | 0.0 | 0.00 | 0.14 | 0.13 | 95 | 1015.9 |
| 20260905022011 | 70 | 29 | 0.0 | 0.0 | 0.00 | 0.14 | 0.13 | 95 | 1015.7 |
| 20260905021534 | 70 | 29 | 0.0 | 0.0 | 0.00 | 0.14 | 0.13 | 95 | 1015.8 |
| 20260905021012 | 71 | 29 | 0.0 | 0.0 | 0.00 | 0.14 | 0.13 | 95 | 1015.8 |
| 20260905020516 | 71 | 29 | 0.0 | 0.9 | 0.00 | 0.14 | 0.13 | 95 | 1015.8 |
| 20260905020043 | 71 | 29 | 0.0 | 0.9 | 0.00 | 0.14 | 0.13 | 94 | 1015.8 |
| 20260905015503 | 71 | 29 | 0.0 | 0.9 | 0.00 | 0.14 | 0.13 | 94 | 1015.8 |
| 20260905015004 | 71 | 29 | 0.0 | 0.9 | 0.00 | 0.14 | 0.13 | 94 | 1015.7 |
| 20260905014514 | 71 | 29 | 0.0 | 0.9 | 0.00 | 0.14 | 0.13 | 94 | 1015.7 |
| 20260905014003 | 71 | 29 | 0.0 | 0.0 | 0.00 | 0.14 | 0.13 | 94 | 1015.7 |
| 20260905013505 | 71 | 29 | 0.0 | 0.0 | 0.00 | 0.14 | 0.13 | 94 | 1015.7 |
| 20260905013027 | 71 | 29 | 0.0 | 0.0 | 0.00 | 0.14 | 0.13 | 93 | 1015.7 |
| 20260905012509 | 71 | 29 | 0.0 | 0.9 | 0.00 | 0.14 | 0.13 | 93 | 1015.7 |
| 20260905012004 | 72 | 29 | 0.0 | 0.9 | 0.00 | 0.14 | 0.13 | 93 | 1015.7 |
| 20260905011521 | 72 | 29 | 0.0 | 0.0 | 0.00 | 0.14 | 0.13 | 93 | 1015.7 |
| 20260905011012 | 72 | 29 | 0.0 | 0.0 | 0.00 | 0.14 | 0.13 | 92 | 1015.7 |
| 20260905010512 | 72 | 29 | 0.0 | 0.9 | 0.00 | 0.14 | 0.13 | 92 | 1015.7 |
| 20260905010011 | 72 | 29 | 0.0 | 0.9 | 0.00 | 0.14 | 0.13 | 92 | 1015.7 |
| 20260905005513 | 73 | 29 | 0.0 | 0.0 | 0.00 | 0.14 | 0.13 | 92 | 1015.6 |
| 20260905005010 | 73 | 29 | 0.0 | 0.0 | 0.00 | 0.14 | 0.13 | 91 | 1015.5 |
| 20260905004512 | 73 | 29 | 0.0 | 0.0 | 0.00 | 0.14 | 0.13 | 91 | 1015.5 |
| 20260905004005 | 73 | 29 | 0.0 | 0.0 | 0.00 | 0.14 | 0.13 | 90 | 1015.5 |
| 20260905003505 | 74 | 29 | 0.0 | 1.7 | 0.00 | 0.14 | 0.13 | 90 | 1015.5 |
| 20260905003010 | 74 | 29 | 0.0 | 1.7 | 0.00 | 0.14 | 0.13 | 89 | 1015.4 |
| 20260905002504 | 74 | 29 | 0.0 | 0.9 | 0.00 | 0.14 | 0.13 | 89 | 1015.4 |
| 20260905002006 | 75 | 29 | 0.0 | 0.9 | 0.00 | 0.14 | 0.13 | 88 | 1015.2 |
| 20260905001520 | 75 | 29 | 0.0 | 0.9 | 0.00 | 0.14 | 0.13 | 88 | 1015.1 |
| 20260905001009 | 75 | 29 | 0.0 | 1.7 | 0.00 | 0.14 | 0.13 | 87 | 1015.3 |
| 20260905000504 | 76 | 29 | 0.0 | 1.7 | 0.00 | 0.14 | 0.13 | 87 | 1015.4 |
| 20260905000023 | 76 | 29 | 0.0 | 1.7 | 0.00 | 0.14 | 0.13 | 87 | 1015.3 |
| 20260904235513 | 76 | 29 | 0.0 | 1.7 | 0.00 | 0.14 | 0.13 | 86 | 1015.4 |
| 20260904235003 | 77 | 29 | 0.0 | 2.6 | 0.00 | 0.14 | 0.13 | 86 | 1015.2 |
| 20260904234519 | 77 | 21 | 0.9 | 2.6 | 0.00 | 0.15 | 0.13 | 85 | 1015.1 |
| 20260904234010 | 77 | 73 | 0.0 | 1.7 | 0.00 | 0.16 | 0.13 | 85 | 1015.4 |
| 20260904233516 | 77 | 73 | 0.0 | 2.6 | 0.00 | 0.17 | 0.13 | 85 | 1015.4 |
| 20260904233012 | 77 | 73 | 0.0 | 2.6 | 0.00 | 0.18 | 0.13 | 86 | 1015.5 |
| 20260904232508 | 77 | 84 | 0.0 | 0.9 | 0.00 | 0.23 | 0.13 | 86 | 1015.5 |
| 20260904232005 | 76 | 84 | 0.0 | 0.9 | 0.00 | 0.30 | 0.13 | 88 | 1015.6 |
| 20260904231511 | 76 | 84 | 0.0 | 0.9 | 0.00 | 0.35 | 0.13 | 88 | 1015.8 |
| 20260904231008 | 76 | 84 | 0.0 | 1.7 | 0.00 | 0.44 | 0.13 | 88 | 1015.8 |
| 20260904230507 | 76 | 84 | 0.0 | 1.7 | 0.00 | 0.54 | 0.13 | 88 | 1015.9 |
| 20260904230016 | 76 | 101 | 0.0 | 2.6 | 0.00 | 0.61 | 0.13 | 88 | 1015.9 |
| 20260904225507 | 76 | 101 | 0.9 | 3.5 | 0.00 | 0.61 | 0.13 | 88 | 1015.9 |
| 20260904225009 | 76 | 86 | 0.0 | 3.5 | 0.00 | 0.61 | 0.13 | 88 | 1015.9 |
| 20260904224524 | 76 | 114 | 1.7 | 2.6 | 0.00 | 0.61 | 0.13 | 88 | 1015.9 |
| 20260904224014 | 76 | 84 | 0.9 | 2.6 | 0.00 | 0.61 | 0.13 | 87 | 1015.8 |
| 20260904223508 | 77 | 80 | 0.9 | 3.5 | 0.00 | 0.69 | 0.13 | 87 | 1015.7 |
| 20260904223023 | 77 | 105 | 0.9 | 3.5 | 0.00 | 0.75 | 0.13 | 87 | 1015.6 |
| 20260904222516 | 77 | 94 | 0.0 | 2.6 | 0.00 | 0.80 | 0.13 | 86 | 1015.4 |
| 20260904222017 | 77 | 94 | 0.9 | 2.6 | 0.00 | 0.80 | 0.13 | 86 | 1015.3 |
| 20260904221518 | 77 | 94 | 0.0 | 2.6 | 0.00 | 0.80 | 0.13 | 86 | 1015.3 |
| 20260904221011 | 77 | 94 | 0.9 | 2.6 | 0.00 | 0.80 | 0.13 | 86 | 1015.2 |
| 20260904220519 | 77 | 78 | 0.9 | 2.6 | 0.00 | 0.80 | 0.13 | 85 | 1015.0 |
| 20260904220017 | 77 | 78 | 0.0 | 2.6 | 0.00 | 0.80 | 0.13 | 84 | 1015.0 |
| 20260904215509 | 77 | 65 | 0.0 | 2.6 | 0.00 | 0.80 | 0.13 | 85 | 1015.0 |
| 20260904215007 | 78 | 54 | 0.9 | 2.6 | 0.00 | 0.80 | 0.13 | 85 | 1014.9 |
| 20260904214523 | 78 | 5 | 0.0 | 1.7 | 0.00 | 0.80 | 0.13 | 85 | 1014.8 |
| 20260904214010 | 77 | 5 | 0.0 | 1.7 | 0.00 | 0.80 | 0.13 | 84 | 1014.7 |
| 20260904213510 | 77 | 286 | 0.0 | 0.9 | 0.00 | 0.80 | 0.13 | 83 | 1014.5 |
| 20260904213026 | 77 | 286 | 0.0 | 3.5 | 0.00 | 0.80 | 0.13 | 84 | 1014.4 |
| 20260904212515 | 77 | 286 | 0.0 | 3.5 | 0.00 | 0.80 | 0.13 | 83 | 1014.2 |
| 20260904212007 | 77 | 319 | 0.9 | 3.5 | 0.00 | 0.80 | 0.13 | 83 | 1014.2 |
| 20260904211530 | 78 | 41 | 0.9 | 3.5 | 0.00 | 0.80 | 0.13 | 83 | 1014.3 |
| 20260904211021 | 78 | 52 | 0.9 | 4.3 | 0.00 | 0.80 | 0.13 | 83 | 1014.4 |
| 20260904210510 | 78 | 337 | 1.7 | 4.3 | 0.00 | 0.80 | 0.13 | 82 | 1014.2 |
| 20260904210032 | 78 | 28 | 0.9 | 6.1 | 0.00 | 0.80 | 0.13 | 82 | 1014.2 |
| 20260904205519 | 78 | 50 | 1.7 | 6.1 | 0.00 | 0.80 | 0.13 | 81 | 1014.2 |
| 20260904205017 | 78 | 5 | 1.7 | 6.1 | 0.00 | 0.80 | 0.13 | 80 | 1014.3 |
| 20260904204518 | 79 | 5 | 2.6 | 4.3 | 0.00 | 0.80 | 0.13 | 82 | 1014.4 |
| 20260904204012 | 78 | 343 | 0.0 | 3.5 | 0.00 | 0.80 | 0.13 | 80 | 1014.6 |
| 20260904203511 | 79 | 355 | 0.0 | 3.5 | 0.00 | 0.80 | 0.13 | 79 | 1014.7 |
| 20260904203027 | 79 | 136 | 0.9 | 3.5 | 0.00 | 0.80 | 0.13 | 79 | 1014.9 |
| 20260904202512 | 79 | 53 | 1.7 | 3.5 | 0.00 | 0.80 | 0.13 | 82 | 1014.9 |
| 20260904202014 | 78 | 88 | 0.9 | 3.5 | 0.00 | 0.80 | 0.13 | 83 | 1015.1 |
| 20260904201530 | 78 | 149 | 0.0 | 1.7 | 0.00 | 0.80 | 0.13 | 84 | 1015.2 |
| 20260904201010 | 78 | 300 | 0.9 | 2.6 | 0.00 | 0.80 | 0.13 | 82 | 1015.1 |
| 20260904200514 | 78 | 134 | 0.0 | 3.5 | 0.00 | 0.80 | 0.13 | 84 | 1015.3 |
| 20260904200032 | 77 | 126 | 0.9 | 3.5 | 0.00 | 0.80 | 0.13 | 83 | 1015.4 |
| 20260904195517 | 77 | 49 | 1.7 | 3.5 | 0.00 | 0.80 | 0.13 | 83 | 1015.4 |
| 20260904195011 | 77 | 116 | 0.0 | 5.2 | 0.00 | 0.80 | 0.13 | 84 | 1015.6 |
| 20260904194531 | 77 | 114 | 1.7 | 5.2 | 0.00 | 0.80 | 0.13 | 85 | 1015.7 |
| 20260904194017 | 77 | 144 | 0.9 | 3.5 | 0.00 | 0.80 | 0.13 | 85 | 1015.7 |
| 20260904193519 | 76 | 34 | 0.0 | 7.8 | 0.00 | 0.80 | 0.13 | 85 | 1015.9 |
| 20260904193031 | 76 | 65 | 2.6 | 7.8 | 0.00 | 0.80 | 0.13 | 86 | 1015.8 |
| 20260904192510 | 76 | 82 | 1.7 | 3.5 | 0.00 | 0.80 | 0.13 | 87 | 1015.7 |
| 20260904192017 | 76 | 121 | 0.9 | 4.3 | 0.00 | 0.80 | 0.13 | 88 | 1015.9 |
| 20260904191525 | 76 | 57 | 1.7 | 4.3 | 0.00 | 0.80 | 0.13 | 87 | 1015.6 |
| 20260904191015 | 76 | 55 | 0.9 | 4.3 | 0.00 | 0.80 | 0.13 | 87 | 1015.4 |
| 20260904190518 | 76 | 89 | 1.7 | 4.3 | 0.00 | 0.80 | 0.13 | 86 | 1015.5 |
| 20260904190031 | 76 | 53 | 2.6 | 4.3 | 0.00 | 0.80 | 0.13 | 85 | 1015.5 |
| 20260904185512 | 76 | 75 | 0.9 | 4.3 | 0.00 | 0.80 | 0.13 | 85 | 1015.8 |
| 20260904185015 | 77 | 100 | 0.0 | 5.2 | 0.00 | 0.80 | 0.13 | 84 | 1016.0 |
| 20260904184537 | 77 | 9 | 1.7 | 6.1 | 0.00 | 0.80 | 0.13 | 83 | 1016.3 |
| 20260904184017 | 77 | 59 | 2.6 | 8.7 | 0.00 | 0.80 | 0.13 | 85 | 1016.8 |
| 20260904183516 | 77 | 99 | 1.7 | 8.7 | 0.00 | 0.80 | 0.13 | 84 | 1017.0 |
| 20260904183040 | 78 | 117 | 2.6 | 6.1 | 0.00 | 0.80 | 0.13 | 85 | 1017.2 |
| 20260904182516 | 78 | 90 | 2.6 | 6.1 | 0.00 | 0.80 | 0.13 | 85 | 1017.2 |
| 20260904182022 | 78 | 123 | 0.9 | 5.2 | 0.00 | 0.80 | 0.13 | 86 | 1017.2 |
| 20260904181545 | 78 | 155 | 0.0 | 5.2 | 0.00 | 0.80 | 0.13 | 85 | 1017.4 |
| 20260904181013 | 78 | 167 | 0.9 | 7.0 | 0.00 | 0.80 | 0.13 | 83 | 1017.8 |
| 20260904180517 | 78 | 191 | 0.9 | 7.0 | 0.00 | 0.80 | 0.13 | 86 | 1017.7 |
| 20260904180031 | 78 | 136 | 1.7 | 7.0 | 0.00 | 0.80 | 0.13 | 86 | 1017.9 |
| 20260904175516 | 78 | 96 | 0.9 | 7.0 | 0.00 | 0.80 | 0.13 | 90 | 1017.9 |
| 20260904175015 | 77 | 182 | 0.9 | 7.0 | 0.00 | 0.80 | 0.13 | 90 | 1017.9 |
| 20260904174533 | 77 | 154 | 0.9 | 6.1 | 0.00 | 0.80 | 0.13 | 91 | 1017.8 |
| 20260904174019 | 76 | 136 | 0.9 | 6.1 | 0.00 | 0.80 | 0.13 | 93 | 1017.8 |
| 20260904173517 | 76 | 125 | 0.9 | 5.2 | 0.00 | 0.80 | 0.13 | 92 | 1017.7 |
| 20260904173036 | 76 | 120 | 0.9 | 5.2 | 0.00 | 0.80 | 0.13 | 93 | 1017.7 |
| 20260904172516 | 75 | 142 | 0.0 | 5.2 | 0.00 | 0.80 | 0.13 | 93 | 1017.7 |
| 20260904172020 | 75 | 80 | 0.9 | 5.2 | 0.00 | 0.80 | 0.13 | 94 | 1017.7 |
| 20260904171539 | 75 | 123 | 0.0 | 4.3 | 0.00 | 0.80 | 0.13 | 95 | 1017.8 |
| 20260904171020 | 75 | 163 | 0.9 | 5.2 | 0.00 | 0.80 | 0.13 | 96 | 1017.8 |
| 20260904170516 | 74 | 153 | 2.6 | 5.2 | 0.00 | 0.80 | 0.13 | 97 | 1017.8 |
| 20260904170031 | 74 | 199 | 0.0 | 5.2 | 0.00 | 0.80 | 0.13 | 97 | 1017.8 |
| 20260904165512 | 74 | 174 | 0.0 | 7.0 | 0.00 | 0.80 | 0.13 | 99 | 1017.9 |
| 20260904165015 | 74 | 92 | 0.9 | 7.0 | 0.00 | 0.80 | 0.13 | 99 | 1017.9 |
| 20260904164508 | 73 | 132 | 2.6 | 7.0 | 0.00 | 0.80 | 0.13 | 99 | 1017.9 |
| 20260904164005 | 73 | 66 | 1.7 | 7.0 | 0.00 | 0.80 | 0.13 | 99 | 1017.9 |
| 20260904163502 | 72 | 135 | 1.7 | 7.0 | 0.00 | 0.80 | 0.13 | 99 | 1017.9 |
| 20260904163010 | 72 | 116 | 1.7 | 7.0 | 0.01 | 0.80 | 0.13 | 99 | 1018.1 |
| 20260904162504 | 71 | 98 | 2.6 | 6.1 | 0.01 | 0.80 | 0.13 | 99 | 1018.2 |
| 20260904162008 | 71 | 101 | 0.9 | 3.5 | 0.01 | 0.80 | 0.13 | 99 | 1018.0 |
| 20260904161516 | 71 | 78 | 1.7 | 2.6 | 0.02 | 0.80 | 0.13 | 98 | 1017.6 |
| 20260904161011 | 71 | 352 | 0.0 | 0.0 | 0.03 | 0.80 | 0.13 | 99 | 1017.6 |
| 20260904160508 | 71 | 352 | 0.0 | 2.6 | 0.03 | 0.80 | 0.13 | 98 | 1017.4 |
| 20260904160024 | 71 | 352 | 0.0 | 2.6 | 0.03 | 0.80 | 0.13 | 99 | 1017.3 |
| 20260904155512 | 70 | 317 | 0.0 | 2.6 | 0.03 | 0.80 | 0.13 | 98 | 1017.2 |
| 20260904155006 | 70 | 340 | 0.0 | 1.7 | 0.04 | 0.80 | 0.13 | 99 | 1017.2 |
| 20260904154526 | 70 | 323 | 0.0 | 3.5 | 0.04 | 0.80 | 0.13 | 98 | 1017.2 |
| 20260904154018 | 70 | 321 | 0.9 | 3.5 | 0.05 | 0.80 | 0.13 | 98 | 1017.1 |
| 20260904153517 | 69 | 295 | 0.9 | 1.7 | 0.05 | 0.80 | 0.13 | 98 | 1017.3 |
| 20260904153019 | 69 | 295 | 0.0 | 2.6 | 0.04 | 0.79 | 0.12 | 98 | 1017.3 |
| 20260904152510 | 69 | 317 | 0.0 | 2.6 | 0.05 | 0.79 | 0.12 | 98 | 1017.3 |
| 20260904152016 | 69 | 313 | 0.9 | 2.6 | 0.06 | 0.79 | 0.12 | 98 | 1017.4 |
| 20260904151520 | 69 | 259 | 0.0 | 2.6 | 0.06 | 0.78 | 0.11 | 98 | 1017.5 |
| 20260904151006 | 69 | 261 | 0.0 | 5.2 | 0.05 | 0.77 | 0.10 | 98 | 1017.4 |
| 20260904150508 | 69 | 296 | 2.6 | 5.2 | 0.06 | 0.77 | 0.10 | 98 | 1017.3 |
| 20260904150020 | 69 | 273 | 1.7 | 3.5 | 0.06 | 0.77 | 0.10 | 98 | 1017.5 |
| 20260904145507 | 69 | 101 | 0.0 | 2.6 | 0.06 | 0.77 | 0.10 | 98 | 1017.8 |
| 20260904145010 | 69 | 89 | 0.9 | 2.6 | 0.06 | 0.76 | 0.09 | 98 | 1018.0 |
| 20260904144528 | 69 | 94 | 0.9 | 2.6 | 0.06 | 0.76 | 0.09 | 98 | 1017.9 |
| 20260904144017 | 69 | 116 | 0.0 | 2.6 | 0.06 | 0.75 | 0.08 | 98 | 1017.8 |
| 20260904143509 | 69 | 116 | 0.0 | 2.6 | 0.08 | 0.75 | 0.08 | 98 | 1018.0 |
| 20260904143034 | 69 | 115 | 0.9 | 2.6 | 0.08 | 0.75 | 0.08 | 98 | 1017.8 |
| 20260904142517 | 69 | 188 | 0.9 | 2.6 | 0.07 | 0.74 | 0.07 | 98 | 1017.5 |
| 20260904142023 | 69 | 143 | 0.0 | 1.7 | 0.06 | 0.73 | 0.06 | 98 | 1017.6 |
| 20260904141523 | 69 | 144 | 0.0 | 2.6 | 0.05 | 0.72 | 0.05 | 98 | 1017.6 |
| 20260904141013 | 69 | 92 | 0.9 | 6.1 | 0.05 | 0.72 | 0.05 | 98 | 1017.6 |
| 20260904140515 | 69 | 101 | 1.7 | 6.1 | 0.04 | 0.71 | 0.04 | 98 | 1017.6 |
| 20260904140032 | 69 | 111 | 1.7 | 6.1 | 0.04 | 0.71 | 0.04 | 98 | 1017.8 |
| 20260904135515 | 69 | 105 | 2.6 | 6.1 | 0.04 | 0.71 | 0.04 | 97 | 1017.8 |
| 20260904135008 | 69 | 92 | 2.6 | 6.1 | 0.03 | 0.70 | 0.03 | 97 | 1017.7 |
| 20260904134526 | 69 | 97 | 2.6 | 7.8 | 0.03 | 0.70 | 0.03 | 97 | 1017.8 |
| 20260904134008 | 69 | 102 | 1.7 | 7.8 | 0.02 | 0.69 | 0.02 | 97 | 1017.8 |
| 20260904133513 | 69 | 117 | 2.6 | 6.1 | 0.00 | 0.67 | 0.00 | 98 | 1017.6 |
| 20260904133029 | 69 | 122 | 0.9 | 2.6 | 0.00 | 0.67 | 0.00 | 98 | 1017.4 |
| 20260904132516 | 69 | 78 | 0.9 | 3.5 | 0.00 | 0.67 | 0.00 | 98 | 1017.2 |
| 20260904132012 | 69 | 114 | 0.9 | 3.5 | 0.00 | 0.67 | 0.00 | 98 | 1017.2 |
| 20260904131531 | 69 | 96 | 1.7 | 5.2 | 0.00 | 0.67 | 0.00 | 98 | 1017.1 |
| 20260904131017 | 69 | 70 | 1.7 | 5.2 | 0.00 | 0.67 | 0.00 | 98 | 1017.3 |
| 20260904130511 | 69 | 5 | 0.9 | 3.5 | 0.00 | 0.67 | 0.00 | 99 | 1017.1 |
| 20260904130027 | 69 | 5 | 1.7 | 3.5 | 0.00 | 0.67 | 0.00 | 98 | 1017.0 |
| 20260904125514 | 69 | 5 | 0.0 | 2.6 | 0.00 | 0.68 | 0.00 | 98 | 1017.1 |
| 20260904125019 | 69 | 5 | 0.9 | 1.7 | 0.00 | 0.69 | 0.00 | 98 | 1017.2 |
| 20260904124524 | 69 | 5 | 0.0 | 1.7 | 0.00 | 0.75 | 0.00 | 98 | 1017.2 |
| 20260904124012 | 68 | 5 | 0.0 | 1.7 | 0.00 | 0.85 | 0.00 | 98 | 1017.1 |
| 20260904123515 | 68 | 5 | 0.9 | 1.7 | 0.00 | 0.88 | 0.00 | 99 | 1017.2 |
| 20260904123032 | 68 | 283 | 0.0 | 1.7 | 0.00 | 0.91 | 0.00 | 99 | 1017.1 |
| 20260904122514 | 68 | 283 | 0.9 | 2.6 | 0.00 | 0.91 | 0.00 | 98 | 1017.1 |
| 20260904122017 | 68 | 283 | 0.9 | 2.6 | 0.00 | 0.91 | 0.00 | 98 | 1017.1 |
| 20260904121530 | 68 | 283 | 0.9 | 1.7 | 0.00 | 0.91 | 0.00 | 98 | 1017.1 |
| 20260904121014 | 68 | 283 | 0.0 | 1.7 | 0.00 | 0.91 | 0.00 | 99 | 1017.1 |
| 20260904120512 | 68 | 283 | 0.0 | 0.9 | 0.00 | 0.91 | 0.00 | 99 | 1017.3 |
| 20260904120044 | 68 | 283 | 0.0 | 0.9 | 0.00 | 0.91 | 0.00 | 99 | 1017.2 |
| 20260904115518 | 67 | 283 | 0.0 | 0.9 | 0.00 | 0.91 | 0.00 | 98 | 1017.1 |
| 20260904115013 | 67 | 281 | 0.0 | 1.7 | 0.00 | 0.91 | 0.00 | 98 | 1017.1 |
| 20260904114531 | 67 | 281 | 0.0 | 1.7 | 0.00 | 0.91 | 0.00 | 98 | 1017.1 |
| 20260904114016 | 67 | 281 | 0.0 | 2.6 | 0.00 | 0.91 | 0.00 | 98 | 1016.9 |
| 20260904113516 | 67 | 264 | 0.9 | 2.6 | 0.00 | 0.91 | 0.00 | 98 | 1016.9 |
| 20260904113036 | 67 | 242 | 0.9 | 2.6 | 0.00 | 0.91 | 0.00 | 98 | 1017.0 |
| 20260904112516 | 67 | 252 | 0.0 | 3.5 | 0.00 | 0.91 | 0.00 | 98 | 1017.0 |
| 20260904112011 | 67 | 231 | 0.9 | 3.5 | 0.00 | 0.91 | 0.00 | 98 | 1017.0 |
| 20260904111529 | 67 | 224 | 0.9 | 3.5 | 0.00 | 0.91 | 0.00 | 98 | 1017.0 |
| 20260904111014 | 67 | 241 | 1.7 | 2.6 | 0.00 | 0.91 | 0.00 | 98 | 1016.7 |
| 20260904110516 | 67 | 292 | 0.0 | 1.7 | 0.00 | 0.91 | 0.00 | 98 | 1016.6 |
| 20260904110030 | 67 | 292 | 0.0 | 1.7 | 0.00 | 0.91 | 0.00 | 98 | 1016.4 |
| 20260904105505 | 67 | 292 | 0.9 | 1.7 | 0.00 | 0.91 | 0.00 | 98 | 1016.3 |
| 20260904105005 | 67 | 298 | 0.9 | 1.7 | 0.00 | 0.91 | 0.00 | 98 | 1016.2 |
| 20260904104514 | 67 | 342 | 0.0 | 1.7 | 0.00 | 0.91 | 0.00 | 98 | 1016.2 |
| 20260904104011 | 67 | 342 | 0.9 | 1.7 | 0.00 | 0.91 | 0.00 | 98 | 1016.2 |
| 20260904103502 | 67 | 304 | 0.0 | 0.9 | 0.00 | 0.91 | 0.00 | 98 | 1016.1 |
| 20260904103022 | 67 | 53 | 0.0 | 0.0 | 0.00 | 0.91 | 0.00 | 98 | 1016.3 |
| 20260904102511 | 67 | 53 | 0.0 | 0.0 | 0.00 | 0.91 | 0.00 | 98 | 1016.2 |
| 20260904102010 | 67 | 53 | 0.0 | 0.0 | 0.00 | 0.91 | 0.00 | 98 | 1016.3 |
| 20260904101513 | 67 | 53 | 0.0 | 0.0 | 0.00 | 0.91 | 0.00 | 98 | 1016.4 |
| 20260904101010 | 67 | 53 | 0.0 | 0.0 | 0.00 | 0.91 | 0.00 | 98 | 1016.3 |
| 20260904100512 | 67 | 53 | 0.0 | 0.0 | 0.00 | 0.91 | 0.00 | 98 | 1016.3 |
| 20260904100032 | 67 | 53 | 0.0 | 0.9 | 0.00 | 0.91 | 0.00 | 98 | 1016.4 |
| 20260904095508 | 67 | 53 | 0.0 | 0.9 | 0.00 | 0.91 | 0.00 | 98 | 1016.4 |
| 20260904095003 | 67 | 53 | 0.0 | 0.9 | 0.00 | 0.91 | 0.00 | 98 | 1016.4 |
| 20260904094508 | 67 | 53 | 0.0 | 1.7 | 0.00 | 0.91 | 0.00 | 98 | 1016.4 |